www.pogodaiklimat.ru

Погода и климат >> Архив погоды >> Тунис >> Тунис


АРХИВ ПОГОДЫ в Тунисе

Время (UTC), дата Ветер
(напр.,м/с)
 
Видим.   Явления Облачность Т
(С)
Тd
(С)
f
(%)
Тe
(С)
Тes
(С)
Комфортность P
(гПа)
Po
(гПа)
Тmin
(С)
Tmax
(С)
R
(мм)
R24
(мм)
S
(см)
15 15.07 СЗ 9 10 км 4/3 900 м
[Cu med, cong Ac cast]
+31.6 +14.3 35 +33 +34 жарко 1008.5 1007.6
18 15.07 СЗ 6 10 км 3/1 900 м
[Cu med, cong Ac cast]
+28.8 +13.5 39 +30 +31 жарко 1009.6 1008.7 +32.5
21 15.07 З 6 10 км 3/1 900 м
[Cu med, cong Ac cast]
+25.9 +16.2 55 +29 +29 душно 1010.8 1009.9
00 16.07 З 3 10 км 1/1 1000 м
[Cu med, cong]
+25.0 +17.2 62 +29 +29 душно 1010.1 1009.2
03 16.07 З 8 10 км 1/1 1000 м
[Cu med, cong]
+25.2 +14.6 52 +28 +28 жарко 1008.7 1007.8
06 16.07 З 8-12
{14}
10 км 3/3 800 м
[Cu Sc]
+25.9 +14.7 50 +28 +29 жарко 1009.8 1008.9 +24.6
09 16.07 СЗ 10-18
{20}
10 км 9/6 800 м
[Cu Sc Ac As]
+27.0 +12.6 41 +29 +29 жарко 1010.6 1009.7
12 16.07 СЗ 10-16
{20}
10 км 9/6 800 м
[Cu Sc Ac As]
+29.2 +13.8 39 +31 +31 жарко 1011.4 1010.5
15 16.07 СЗ 9-14
{17}
10 км 4/4 800 м
[Cu hum]
+29.4 +14.8 41 +32 +32 душно 1012.4 1011.5
18 16.07 СЗ 6 10 км 3/3 800 м
[Cu hum]
+26.2 +15.3 51 +29 +29 жарко 1014.0 1013.1 +30.2
21 16.07 СЗ 3 10 км 3/3 800 м
[Cu hum]
+24.3 +17.1 64 +28 +28 душно 1015.3 1014.4
00 17.07 З 4 10 км 3/3 800 м
[Cu hum]
+23.6 +17.6 69 +28 +28 душно 1015.6 1014.7
03 17.07 З 2-5
{7}
10 км ясно +22.6 +17.3 72 +27 +27 душно 1014.4 1013.5
06 17.07 ЮЗ 2 10 км 1/1 1200 м
[Cu hum]
+24.1 +17.4 66 +28 +30 душно 1014.6 1013.7 +22.2
09 17.07 СЗ 2 10 км 3/3 1000 м
[Cu med, cong]
+28.4 +16.0 47 +32 +42 душно 1014.9 1014.0
12 17.07 С 4 10 км 3/3 1000 м
[Cu med, cong]
+30.6 +16.6 43 +34 +43 очень
душно
1014.3 1013.4
15 17.07 С 6 10 км 3/3 1000 м
[Cu med, cong]
+28.8 +17.0 49 +33 +35 очень
душно
1013.6 1012.7
18 17.07 СВ 4 10 км 3/3 1000 м
[Cu med, cong]
+26.1 +17.7 60 +30 +30 душно 1012.9 1012.0 +31.2
21 17.07 ЮВ 1 10 км 1/1 1000 м
[Cu hum]
+24.6 +17.3 64 +29 +29 душно 1013.6 1012.7
00 18.07 Ю 2 10 км 1/1 1000 м
[Cu hum]
+24.4 +18.1 68 +29 +29 душно 1013.1 1012.2
03 18.07 штиль 0 10 км 1/1 1000 м
[Cu hum]
+23.5 +17.9 71 +28 +28 душно 1011.7 1010.8
06 18.07 С 1 10 км ясно +25.5 +19.2 68 +31 +34 очень
душно
1012.4 1011.5 +21.2
09 18.07 СВ 2 10 км 5/0
[Ac lent Ci sp]
+29.5 +16.0 44 +33 +44 душно 1012.9 1012.0
12 18.07 В 3 10 км 3/0
[Ci sp]
+32.9 +14.0 32 +34 +51 опасность
солнечного
удара
1012.6 1011.7
15 18.07 С 7 10 км 3/3 900 м
[Cu med, cong Ci sp]
+30.8 +17.8 46 +35 +37 очень
душно
1012.5 1011.6
18 18.07 С 5 10 км 5/4 900 м
[Cu med, cong Ci sp]
+26.8 +19.7 65 +33 +33 очень
душно
1014.1 1013.2 +33.5
21 18.07 СЗ 2-4
{9}
10 км 5/4 900 м
[Cu med, cong Ci sp]
+25.0 +17.7 64 +29 +29 душно 1015.4 1014.5
00 19.07 З 1 10 км ясно +23.7 +17.4 68 +28 +28 душно 1015.8 1014.9
06 19.07 Ю 2 10 км ясно +24.6 +15.2 56 +28 +30 душно 1015.9 1015.0 +23.0
09 19.07 СЗ 2 10 км 3/3 700 м
[Cu med, cong]
+29.4 +17.2 48 +33 +45 душно 1016.7 1015.8
12 19.07 Ю 2 10 км ясно +32.9 +15.0 34 +35 +55 опасность
солнечного
удара
1016.0 1015.1
15 19.07 С 5 10 км ясно +31.3 +18.6 47 +36 +41 очень
душно
1015.6 1014.7
18 19.07 С 4 10 км ясно +26.9 +19.5 64 +33 +33 очень
душно
1015.8 1014.9 +33.5
21 19.07 СВ 2 10 км ясно +24.5 +20.0 76 +30 +30 очень
душно
1016.7 1015.8
00 20.07 Ю 2 10 км ясно +24.4 +20.7 80 +30 +30 очень
душно
1016.6 1015.7
03 20.07 В 1 10 км ясно +21.5 +18.5 83 +26 +26 душно 1015.8 1014.9
06 20.07 В 2 10 км ясно +25.8 +21.2 76 +33 +35 очень
душно
1016.4 1015.5 +21.2
09 20.07 В 2 10 км ясно +30.7 +17.7 46 +35 +50 очень
душно
1016.6 1015.7
12 20.07 В 3 10 км ясно +33.3 +13.4 30 +34 +52 опасность
солнечного
удара
1016.2 1015.3
15 20.07 В 3 10 км ясно +33.4 +17.1 38 +37 +44 очень
душно
1015.3 1014.4
18 20.07 В 5 10 км ясно +29.1 +19.7 57 +35 +35 очень
душно
1016.1 1015.2 +34.2
21 20.07 ЮВ 2 10 км ясно +27.0 +20.3 67 +33 +33 очень
душно
1017.5 1016.6
00 21.07 ЮВ 3 10 км ясно +26.5 +21.0 72 +33 +33 очень
душно
1017.6 1016.7
03 21.07 ЮВ 2 10 км ясно +25.8 +20.4 72 +32 +32 очень
душно
1017.0 1016.1
06 21.07 В 3 10 км 1/0
[Ci sp]
+26.7 +20.8 70 +33 +35 очень
душно
1018.1 1017.2 +25.4
09 21.07 В 5 10 км 1/1 1200 м
[Cu hum]
+30.0 +17.5 47 +34 +41 очень
душно
1018.6 1017.7
12 21.07 В 6 10 км 1/1 1200 м
[Cu hum]
+32.8 +14.4 33 +34 +42 очень
жарко
1018.2 1017.3
15 21.07 В 5 10 км 1/1 1000 м
[Cu hum]
+33.2 +16.5 37 +36 +40 очень
душно
1017.6 1016.7
18 21.07 В 4 10 км 1/1 1000 м
[Cu hum]
+30.0 +16.8 45 +34 +34 очень
душно
1018.1 1017.2 +34.1
21 21.07 В 3 10 км 1/1 1000 м
[Cu hum]
+26.8 +20.2 67 +33 +33 очень
душно
1019.8 1018.9
00 22.07 В 3 10 км 1/1 1000 м
[Cu hum]
+25.3 +21.6 80 +32 +32 очень
душно
1020.4 1019.5
03 22.07 ЮВ 2-3
{6}
10 км ясно +24.3 +21.6 85 +31 +31 очень
душно
1019.8 1018.9
06 22.07 штиль 0 10 км 1/1 800 м
[Cu hum]
+25.7 +19.3 68 +31 +34 очень
душно
1020.3 1019.4 +22.5
09 22.07 С 2 10 км ясно +30.5 +18.9 50 +36 +51 опасность
солнечного
удара
1020.8 1019.9
12 22.07 С 5 10 км 3/3 1000 м
[Cu med, cong]
+33.2 +17.4 39 +37 +45 очень
душно
1020.4 1019.5

 

Местоположение метеостанции Тунис (Тунис): широта 36.83 долгота 10.23 высота над уровнем моря 4 м.

В архиве по умолчанию представлена погода в Тунисе за последнюю неделю. Архивные данные за месяц целиком и за предыдущие месяцы, начиная с января 2011 года, Вы можете получить, выбрав интересующий диапазон дат из раскрывающегося списка и нажав кнопку "Ввод!".


*Определитесь, кто Вы:
робот инопланетянин человек

Внимание! Время в таблицах - всемирное. Для получения местного времени необходимо прибавить поправку, которая равна 1 ч.

Смотрите также архив погоды в соседних городах и на ближайших метеорологических станциях:

Погода в Могхране (Тунис) (46 км)
Погода в Набеле (Тунис) (58 км)
Погода в Бизерте (Тунис) (60 км)
Погода в Келибии (Тунис) (76 км)
Погода в Аэропорту Анфида Аммаме (Тунис) (86 км)
Погода в Бее (Тунис) (94 км)
Погода в Силиане (Тунис) (114 км)
Погода в Кайруане (Тунис) (130 км)
Погода в Табарке (Тунис) (132 км)
Погода в Джендубе (Тунис) (133 км)

Пояснения к столбцам:

Ветер - указаны скорость ветра в м/с - средняя за 10 мин, порывы в срок и между сроками (в фигурных скобках) и направление, откуда дует ветер: С - северный, СВ - северо-восточный, В - восточный, ЮВ - юго-восточный, Ю - южный, ЮЗ - юго-западный, З - западный, СЗ - северо-западный.
Видимость - горизонтальная дальность видимости в метрах или километрах. При видимости от 1 до 10 км при отсутствии осадков обычно наблюдается дымка, при ухудшении видимости до 1 км и менее - туман. В сухую погоду видимость может ухудшаться дымом, пылью или мглою.
Явления - указаны атмосферные явления, наблюдавшиеся в срок или в последний час перед сроком; фигурными скобками обозначены явления, наблюдавшиеся между сроками (за 1-3 часа до срока); квадратными скобками обозначены град или гололедные отложения с указанием их диаметра в мм.
Облачность - указаны через наклонную черту общая и нижняя облачность в баллах и высота нижней границы облаков в метрах; квадратными скобками обозначены формы облаков: Ci - перистые, Cs - перисто-слоистые, Cc - перисто-кучевые, Ac - высококучевые, As - высокослоистые, Sc - слоисто-кучевые, Ns - слоисто-дождевые, Cu - кучевые, Cb - кучево-дождевые. Подробнее классификацию облаков см. в Атласе облаков (PDF).
T - Температура воздуха - температура, измеренная на высоте 2 м над землей.
Td - Температура точки росы - температура, при понижении до которой содержащийся в воздухе водяной пар достигнет насыщения.
f - Относительная влажность воздуха - влажноcть воздуха, измеренная на высоте 2 м над землей.
Te - Эффективная температура - температура, которую ощущает одетый по сезону человек в тени. Характеристика душности погоды. При расчете учитывается влияние влажности воздуха и скорости ветра на теплоощущения человека.
Tes - Эффективная температура на солнце - температура, которую ощущает человек, с поправкой на солнечный нагрев. Характеристика знойности погоды. Зависит от высоты солнца над горизонтом, облачности и скорости ветра. Ночью, в пасмурную погоду, а также при ветре 12 м/с и более поправка равна нулю.
P - Атмосферное давление - приведенное к уровню моря атмосферное давление.
Po - Атмосферное давление - измеренное на уровне метеостанции атмосферное давление.
Tmin - Минимальная температура - минимум температуры воздуха на высоте 2 м над землей.
Tmax - Максимальная температура - максимум температуры воздуха на высоте 2 м над землей.
R - Количество осадков - Количество выпавших осадков за период времени, мм. При наведении курсора мыши на число - период времени, за который выпало указанное количество осадков.
R24 - Количество осадков - Количество выпавших осадков за 24 часа, мм.
S - Снежный покров - Высота снежного покрова, см. При наведении курсора мыши на число - состояние снежного покрова и степень покрытия местности в баллах.